This demonstration page uses our WeatherBlox Daily Observations layout. Learn more.

Left ArrowRight Arrow

Hourly Observations for July 31, 2018

Temp ( °F °C ) Dew Point ( °F °C ) Humidity (%) Winds ( mph kmh ) Pressure ( in mb ) Visibility ( mi km ) Precip ( " mm )
12:53 am 00:53 Mostly Cloudy 80 26.7 64 17.8 58 58 E 14 22 29.95 1014 10 16 0.00 0.00
1:53 am 01:53 Clear 79 26.1 64 17.8 60 60 ENE 15 24 29.96 1015 10 16 0.00 0.00
2:53 am 02:53 Partly Cloudy 71 21.7 60 15.6 68 68 ENE 23 37 29.95 1014 10 16 0.00 0.00
3:53 am 03:53 Mostly Cloudy 69 20.6 60 15.6 73 73 E 9 15 29.97 1015 10 16 0.00 0.00
4:53 am 04:53 Mostly Cloudy 69 20.6 60 15.6 73 73 ENE 9 15 29.98 1015 10 16 0.00 0.00
5:53 am 05:53 Cloudy 69 20.6 64 17.8 84 84 N 8 13 30.05 1018 10 16 0.00 0.03
6:24 am 06:24 Cloudy with Nearby Thunderstorms 69 20.6 67 19.4 93 93 NE 10 17 30.09 1019 10 16 0.00 0.03
6:53 am 06:53 Cloudy with Nearby Thunderstorms 68 20 66 18.9 93 93 NE 7 11 30.06 1018 7 11 0.00 0.03
7:06 am 07:06 Cloudy with Light Rain 68 20 67 19.4 96 96 E 10 17 30.09 1019 7 11 0.00 0.03
7:53 am 07:53 Mostly Cloudy 69 20.6 66 18.9 90 90 VRB 3 6 30.05 1018 10 16 0.00 0.03
8:53 am 08:53 Cloudy 70 21.1 67 19.4 90 90 W 3 6 30.07 1018 10 16 0.00 0.00
9:22 am 09:22 Mostly Cloudy 70 21.1 67 19.4 90 90 NNW 5 7 30.06 1018 10 16 0.00 0.00
9:53 am 09:53 Partly Cloudy 71 21.7 67 19.4 87 87 N 6 9 30.08 1019 10 16 0.00 0.00
10:53 am 10:53 Mostly Sunny 75 23.9 66 18.9 74 74 N 3 6 30.07 1018 10 16 0.00 0.00
11:53 am 11:53 Sunny 78 25.6 66 18.9 67 67 SE 6 9 30.07 1018 10 16 0.00 0.00
12:53 pm 12:53 Sunny 82 27.8 64 17.8 55 55 SE 8 13 30.07 1018 10 16 0.00 0.00
1:53 pm 13:53 Partly Cloudy 83 28.3 64 17.8 53 53 undefined N/A 30.05 1018 10 16 0.00 0.00
2:53 pm 14:53 Mostly Sunny 85 29.4 61 16.1 45 45 ESE 5 7 30.03 1017 10 16 0.00 0.00
3:53 pm 15:53 Mostly Cloudy 85 29.4 62 16.7 46 46 VRB 3 6 30.01 1016 10 16 0.00 0.00
4:53 pm 16:53 Mostly Cloudy 86 30 61 16.1 43 43 undefined N/A 29.99 1016 10 16 0.00 0.00
5:53 pm 17:53 Mostly Cloudy 87 30.6 62 16.7 43 43 VRB 3 6 29.97 1015 10 16 0.00 0.00
6:53 pm 18:53 Partly Cloudy 89 31.7 61 16.1 39 39 E 8 13 29.94 1014 10 16 0.00 0.00
7:53 pm 19:53 Sunny 86 30 61 16.1 43 43 E 5 7 29.95 1014 10 16 0.00 0.00
8:53 pm 20:53 Clear 84 28.9 61 16.1 46 46 SE 6 9 29.96 1015 10 16 0.00 0.00
9:53 pm 21:53 Clear 81 27.2 61 16.1 51 51 ESE 6 9 29.96 1015 10 16 0.00 0.00
10:53 pm 22:53 Clear 78 25.6 64 17.8 62 62 SSE 7 11 29.98 1015 10 16 0.00 0.00
11:53 pm 23:53 Clear 76 24.4 64 17.8 67 67 SSW 5 7 29.99 1016 10 16 0.00 0.00

Powered by AerisWeather